Wind_Speed
13 12 14 16 18 20 20 19 18 18 19 19 20 22 22 23 23 21 20 22 24 24 24 24 25 26 25 23 23 24 24 22 22 22 21 20 20 19 19 18 18 17 16 16 16 16 16 16 16 18 18 16 15 15 16 16 18 21 24 26 26 22 19 17 10 6 12 16 16 19 19 17 18 19 19 18 19 18 17 16 15 15 14 14 13
13 12 12 16 19 19 19 21 21 20 20 21 23 23 22 21 21 19 20 23 24 24 24 24 25 26 25 23 23 25 24 22 21 22 21 20 20 19 18 18 17 17 17 17 17 16 16 16 16 17 17 16 16 15 16 16 16 20 24 26 26 24 21 19 13 8 10 14 15 17 19 19 19 20 20 20 20 20 19 19 18 17 16 16 16
13 11 11 14 20 21 20 22 23 22 22 24 25 24 22 21 20 19 21 23 24 24 24 25 24 24 24 25 25 25 23 21 21 21 21 21 20 19 18 18 17 17 17 18 17 16 16 15 15 15 16 16 15 15 17 17 15 18 23 26 25 23 22 20 15 11 11 14 16 18 20 20 20 20 20 20 21 21 20 20 18 18 18 19 19
14 12 12 13 17 21 22 22 23 25 25 26 26 24 21 21 21 21 22 22 22 24 25 24 24 23 24 25 25 24 22 21 21 21 21 21 19 18 17 17 17 16 17 17 17 17 16 16 15 15 15 16 16 16 16 16 17 18 20 21 21 20 20 19 17 16 16 16 18 20 21 21 20 20 20 21 22 22 21 20 20 19 20 20 21
16 13 12 14 14 16 21 23 25 28 28 28 28 25 21 22 22 22 22 21 23 26 26 24 24 24 25 26 24 23 22 22 21 21 21 20 18 17 17 17 17 16 16 17 17 17 16 15 15 16 16 16 16 17 16 16 17 17 16 18 21 20 18 18 20 21 20 20 19 19 20 19 20 21 21 21 22 23 22 22 21 21 21 22 23
19 15 13 14 15 15 18 22 24 26 26 27 29 27 23 23 22 21 21 22 24 27 27 26 24 25 27 26 24 23 22 22 21 20 20 19 17 16 16 16 17 16 15 15 16 16 15 14 14 16 17 17 17 17 16 16 16 16 15 17 21 22 18 16 19 21 22 22 20 19 20 20 20 21 22 21 21 23 24 24 23 23 23 24 25
21 16 14 14 15 17 19 20 22 24 25 26 28 26 22 22 22 21 22 23 24 26 28 28 26 26 28 27 24 23 23 22 21 20 19 18 17 16 15 15 16 15 14 14 14 14 13 12 13 14 16 16 16 16 16 16 16 17 16 16 20 23 20 17 17 17 18 20 19 19 20 20 21 20 20 20 20 21 22 23 25 26 26 26 26
23 18 15 14 14 15 16 18 20 23 24 24 25 24 21 21 22 23 25 25 25 28 30 29 26 27 28 26 25 24 22 21 19 18 18 18 16 15 15 16 16 14 13 13 14 13 11 11 11 11 13 13 13 14 16 17 16 17 16 15 18 23 23 20 17 14 16 19 19 19 19 19 19 19 17 18 19 21 23 24 26 26 26 26 26
25 20 16 15 14 13 12 15 18 19 19 19 22 24 24 24 24 25 26 27 27 29 30 29 28 28 27 25 24 23 21 19 17 16 16 16 15 14 14 15 15 14 14 13 13 13 11 10 10 10 11 11 11 12 13 13 14 16 15 12 15 20 21 18 14 12 15 19 19 17 17 17 19 19 19 20 22 23 23 24 26 26 25 26 26
26 23 21 17 14 13 12 13 14 15 17 18 21 25 27 28 27 27 28 28 28 28 29 30 30 29 26 25 24 22 20 19 17 15 14 14 14 14 14 15 14 14 14 13 11 11 11 10 9 9 9 9 10 11 11 10 12 15 13 9 12 19 20 16 13 13 16 20 20 18 17 18 21 23 24 24 25 24 22 22 25 25 23 23 26
26 25 23 19 15 13 14 14 13 14 16 15 19 25 28 28 28 28 29 29 28 29 30 31 31 29 26 25 23 21 20 19 17 16 14 13 14 14 14 14 14 14 13 13 12 11 10 9 8 7 8 8 9 9 9 10 10 11 12 10 11 17 19 18 18 18 19 20 21 20 21 21 22 24 25 24 22 22 22 21 22 21 18 17 19
27 26 25 20 15 11 12 14 13 15 15 14 18 25 28 28 28 28 27 27 30 32 31 31 30 28 26 24 22 21 20 19 18 17 15 14 14 13 14 14 15 15 15 14 13 11 9 8 7 6 6 6 7 8 9 9 9 9 12 12 11 14 16 17 18 19 20 20 19 19 20 20 18 19 22 22 20 20 20 19 19 19 19 17 19
28 28 27 24 17 11 7 10 11 12 12 12 18 26 28 28 28 28 27 27 29 32 33 31 29 27 25 24 22 21 20 19 18 17 16 15 14 13 15 16 16 16 15 14 13 12 10 9 8 7 7 6 6 7 10 12 11 10 11 11 10 10 9 8 8 9 13 15 16 15 14 12 10 9 11 15 16 16 16 18 19 19 20 20 23
28 28 29 27 22 15 7 3 8 10 11 15 21 26 28 28 28 29 30 28 28 32 34 31 29 27 26 25 23 22 20 18 17 16 15 15 14 14 15 16 17 16 14 13 12 12 11 10 9 9 9 10 10 12 14 16 16 16 16 16 15 14 12 11 9 7 6 6 7 8 7 4 4 3 3 4 6 6 7 9 10 12 14 14 16
28 28 29 30 26 21 14 6 6 11 14 17 23 26 26 27 28 30 30 28 27 30 32 30 28 27 25 24 23 21 19 18 16 16 15 15 15 15 15 16 17 16 14 12 12 11 11 9 9 9 9 10 12 13 15 17 17 16 16 15 14 13 12 12 11 10 9 8 7 8 7 5 4 4 3 2 2 1 2 2 2 4 5 6 7
29 29 29 29 29 26 19 12 12 16 16 16 19 25 26 25 26 28 28 27 26 27 29 28 26 24 22 22 22 21 18 17 16 15 15 16 16 16 16 17 18 17 15 14 14 13 12 11 10 10 10 11 12 12 12 13 15 14 14 14 13 11 11 12 12 11 9 8 8 7 5 4 3 2 1 0 1 2 2 3 3 4 5 7 8
29 29 28 27 28 28 23 18 17 19 21 18 17 23 28 26 24 26 28 27 25 25 26 26 24 22 20 20 20 20 18 16 15 14 14 15 16 17 18 18 19 19 18 17 17 16 15 14 13 13 14 14 14 13 12 12 13 14 15 15 14 13 13 13 12 11 10 9 8 7 6 4 3 2 2 1 2 3 4 4 5 6 7 7 7
28 28 28 26 25 26 26 23 21 21 23 21 18 21 27 26 24 25 27 27 26 25 26 27 24 22 21 19 19 19 18 17 16 16 15 15 17 19 20 21 22 22 21 20 18 17 17 15 14 14 15 15 14 14 13 12 13 14 14 14 13 13 12 10 8 8 8 7 7 7 7 6 6 5 5 4 4 4 4 3 3 4 4 3 4
27 26 26 26 24 24 25 26 25 24 23 21 18 19 23 24 24 25 25 26 27 26 25 27 26 23 21 21 20 19 19 19 18 18 19 18 19 20 22 23 24 23 22 21 19 17 16 15 14 13 14 14 13 12 11 10 11 11 10 10 11 11 10 8 7 7 7 7 8 8 8 8 7 7 7 7 7 7 8 7 7 6 5 5 4
25 25 25 26 26 25 25 25 25 24 23 21 19 19 21 23 25 25 25 26 27 28 27 28 28 25 23 23 22 20 20 19 19 20 21 21 21 22 23 24 25 24 22 20 19 17 15 14 13 13 12 11 11 10 9 8 8 8 7 7 9 11 10 9 9 9 9 10 11 11 10 10 8 8 8 8 9 10 10 9 9 8 7 6 5
26 27 26 27 27 26 26 26 25 23 22 22 22 21 20 22 25 26 26 25 26 27 29 30 29 27 25 23 23 21 20 19 19 19 20 21 22 22 23 24 24 23 21 19 18 17 15 14 13 12 10 9 9 8 8 7 6 6 6 7 8 10 9 9 10 11 11 12 12 11 11 10 9 10 10 11 11 12 12 11 10 9 8 7 6
26 27 28 28 27 26 25 25 25 23 22 23 24 22 20 20 23 26 26 25 24 25 28 30 30 29 26 24 23 21 19 18 18 18 19 19 19 20 21 22 22 21 21 19 18 17 16 14 13 11 9 9 9 8 8 8 7 7 8 9 9 9 8 9 9 10 10 10 10 10 10 10 11 12 12 13 13 13 13 12 11 9 8 7 6
26 27 28 28 28 26 24 23 22 23 23 23 23 22 19 18 21 25 26 24 23 23 24 27 29 29 27 26 24 22 20 19 18 17 17 17 16 16 18 19 18 18 19 19 18 18 17 15 14 12 10 10 10 10 10 9 10 11 11 10 10 9 8 9 9 9 10 10 10 11 12 12 13 13 14 15 15 14 14 13 11 9 7 6 5
28 28 28 27 27 27 25 22 21 20 21 23 23 22 19 17 18 23 26 25 23 22 22 24 26 26 26 25 24 22 21 19 18 17 16 15 15 15 16 17 16 16 18 20 20 19 19 18 17 15 14 14 14 14 14 13 13 13 13 11 11 10 10 10 10 10 11 12 12 13 13 13 13 14 14 15 14 14 13 12 11 9 7 6 5
27 28 27 27 27 27 27 25 23 20 18 19 21 21 19 17 17 20 23 24 23 22 22 23 23 23 22 22 21 20 19 18 17 16 15 14 14 15 17 18 18 18 21 23 23 22 22 21 20 18 17 17 16 16 17 17 16 15 13 12 12 12 11 11 11 10 11 13 13 12 12 12 12 12 12 12 13 14 13 13 11 9 8 7 6
24 25 25 25 26 27 28 28 27 25 22 19 19 18 18 17 17 18 20 21 21 21 22 22 22 21 19 19 19 18 17 15 16 16 15 14 16 18 19 21 22 22 25 26 25 24 23 21 20 19 18 17 17 18 19 18 16 15 14 13 13 13 12 11 11 11 12 12 11 11 11 11 10 10 10 11 12 13 14 14 14 12 10 9 7
21 21 22 23 23 24 25 26 27 28 26 24 22 19 17 16 16 15 16 16 17 18 18 18 18 18 17 18 18 17 16 15 16 16 15 16 18 20 22 24 25 26 27 27 25 23 22 20 19 19 18 18 17 17 17 15 14 14 14 13 13 13 12 12 11 12 12 11 10 9 9 9 9 9 11 12 12 13 14 15 15 14 12 11 10
19 19 19 21 21 21 21 22 24 26 26 26 25 22 20 18 16 14 12 12 14 15 15 14 13 14 16 16 16 15 15 16 16 16 16 17 19 21 23 25 26 26 26 25 24 22 21 20 19 18 16 16 16 15 15 14 13 14 13 13 13 12 11 11 11 11 11 10 9 9 9 9 10 11 12 12 13 14 14 14 14 13 12 11 11
19 18 17 18 19 19 18 19 21 22 23 24 24 23 22 21 19 17 14 13 14 15 15 14 13 12 13 15 15 15 15 15 15 15 16 17 18 20 22 23 23 23 23 22 21 21 20 18 18 17 16 16 15 15 14 14 14 14 14 14 13 13 12 12 12 13 13 12 12 12 12 12 13 13 13 14 15 15 15 15 15 14 13 13 14
17 18 16 15 15 15 16 16 17 18 19 20 21 21 21 20 19 18 16 15 14 13 14 13 12 11 12 13 14 15 16 15 15 15 15 16 18 20 21 21 21 21 20 18 17 18 18 19 19 18 17 17 17 16 16 15 16 16 16 16 16 15 15 15 15 15 14 13 14 15 14 15 16 16 16 16 16 17 17 17 17 17 16 16 16
13 14 15 14 12 11 11 12 13 14 16 17 18 19 20 20 19 18 17 15 14 14 13 13 12 12 12 13 14 15 16 15 15 14 15 16 18 19 20 19 18 17 14 13 15 18 18 19 20 18 17 18 18 18 18 18 18 18 18 18 18 17 17 17 16 15 15 16 16 16 16 16 16 16 16 16 16 17 17 18 18 19 18 17 17
10 9 10 11 11 10 8 8 9 10 12 13 15 16 19 20 20 19 18 18 17 16 15 13 12 11 10 11 13 15 15 15 14 13 15 17 18 19 18 16 15 13 9 10 16 19 19 19 19 17 17 18 19 18 18 19 19 19 19 19 19 18 18 18 16 16 16 16 16 16 16 15 14 14 14 14 15 15 16 16 17 17 16 15 15
10 7 6 7 8 10 9 8 7 7 7 9 10 12 14 17 19 19 19 18 18 18 17 15 14 12 11 10 11 13 14 14 13 13 15 17 18 18 17 16 14 11 8 12 19 20 18 17 17 16 17 18 18 18 19 19 18 19 19 19 18 17 16 15 14 15 15 15 15 15 15 14 14 14 14 14 15 15 15 16 15 15 14 14 14
10 8 7 7 6 7 7 7 7 6 5 5 6 7 10 13 16 18 18 18 18 18 18 17 15 14 13 12 11 12 14 14 14 14 16 17 17 17 16 16 14 11 10 14 19 19 17 17 17 17 17 18 18 18 18 18 17 18 18 18 17 16 15 14 14 15 15 15 15 16 16 15 15 15 15 15 16 16 16 16 16 15 15 14 13
11 9 9 9 8 6 4 4 4 4 4 4 5 7 9 11 14 16 17 17 17 17 16 16 14 13 14 14 13 13 14 14 15 15 15 15 15 14 14 15 16 15 16 17 18 17 17 17 17 17 17 18 17 17 17 16 16 16 16 16 16 15 15 15 15 15 15 15 16 16 16 15 15 15 15 16 16 16 16 16 15 15 14 13 12
13 11 10 10 9 7 5 5 5 4 4 4 6 9 11 12 14 15 16 16 16 16 15 15 14 13 12 13 13 13 13 13 13 13 14 14 13 11 11 15 17 18 18 18 18 18 17 17 17 18 18 17 16 16 15 15 15 15 15 15 15 15 15 15 14 14 14 14 15 15 15 15 15 14 14 15 15 15 15 14 14 13 12 12 12
12 12 11 10 9 9 9 8 7 5 4 4 7 11 12 12 14 15 16 16 15 15 14 14 13 12 12 12 10 10 10 10 10 11 11 11 10 8 9 14 17 18 18 18 17 17 17 16 17 17 17 16 15 14 14 13 13 13 13 13 13 14 14 14 13 13 13 13 13 14 14 14 14 13 13 13 13 13 13 12 12 12 12 12 13
13 12 11 8 7 8 9 9 9 8 5 4 7 12 15 14 14 14 14 14 13 12 12 12 11 12 12 11 9 7 7 7 8 9 9 9 9 10 12 14 15 17 18 17 16 16 16 15 15 15 15 15 14 14 13 12 12 12 12 12 12 12 13 13 13 13 13 13 13 13 13 13 13 13 12 12 12 12 12 12 12 13 13 13 13
12 13 11 8 6 6 6 7 9 9 8 7 6 10 14 14 14 14 12 11 11 10 10 10 10 10 10 9 7 5 5 5 7 9 10 10 11 12 14 15 15 16 17 16 15 15 15 14 13 13 13 13 13 13 13 13 12 11 11 11 11 11 12 12 12 13 13 13 12 12 11 12 12 11 11 11 12 13 13 13 13 13 13 14 13
11 12 13 11 7 4 4 5 7 7 8 7 6 6 11 14 14 13 12 10 9 8 9 11 11 9 7 6 4 2 3 7 10 11 12 12 13 12 12 13 14 15 15 14 14 14 14 13 13 12 12 11 11 12 12 12 12 11 9 9 10 10 10 10 11 12 12 12 11 10 10 10 10 10 11 12 13 13 13 13 13 13 14 14 14
12 12 13 13 8 3 2 4 5 6 6 6 4 2 7 12 14 12 10 10 9 8 9 12 12 10 7 5 3 1 4 8 12 12 12 12 11 11 11 11 12 13 13 14 14 14 14 13 12 11 11 11 10 10 9 9 9 9 8 8 8 8 8 8 9 10 10 10 9 8 8 9 9 10 11 12 12 12 12 12 12 13 13 14 13
11 11 12 13 9 4 2 3 3 4 5 5 3 2 3 8 11 11 9 9 9 9 11 14 14 11 8 5 4 3 5 9 11 11 11 11 11 10 10 11 12 13 13 14 14 14 13 13 12 10 10 10 9 9 8 8 7 7 7 6 6 5 5 6 7 7 8 8 7 6 7 8 10 11 12 12 12 12 12 12 12 12 12 12 12
9 9 10 11 9 5 4 4 3 3 5 5 4 3 1 3 7 10 10 10 11 13 15 15 14 12 9 7 5 5 6 8 9 9 10 11 12 12 13 13 14 15 14 13 12 12 11 11 10 9 8 8 7 7 7 7 7 6 6 5 4 3 2 4 5 5 6 7 7 6 7 8 9 11 12 11 12 14 14 13 13 13 12 12 11
8 8 9 9 8 6 5 5 4 4 5 5 3 3 3 2 4 9 11 11 12 15 16 15 14 13 11 9 8 7 7 8 8 8 10 11 12 13 14 14 14 14 14 13 12 11 10 9 9 8 7 7 6 5 5 5 5 4 4 3 2 2 1 1 3 4 6 7 6 6 6 7 8 9 11 10 11 14 15 14 13 13 13 12 11
8 7 7 7 7 7 6 5 5 5 5 4 3 3 3 2 3 6 9 10 12 15 15 14 13 12 11 9 8 8 7 7 8 8 9 10 11 12 12 12 12 12 12 12 11 10 9 8 8 7 6 5 4 4 3 2 2 1 1 1 1 1 1 1 3 4 6 7 6 5 6 6 7 9 10 9 10 12 13 13 13 13 12 11 11
8 7 5 5 6 6 6 6 8 8 6 5 4 3 1 1 1 3 6 8 11 13 14 13 12 11 10 8 8 7 7 6 6 7 8 9 10 10 10 11 11 11 11 11 10 8 7 6 6 5 4 3 2 1 1 1 1 1 1 1 1 0 1 2 3 4 4 5 5 5 5 6 7 8 9 9 9 10 11 11 11 11 10 11 12
10 8 5 3 4 6 7 7 8 9 8 6 5 5 4 2 1 3 5 6 8 11 12 12 12 11 9 7 6 7 6 5 4 6 7 8 8 9 9 9 10 9 9 9 8 6 5 5 4 4 3 2 2 1 1 1 0 1 1 1 1 1 2 2 3 3 3 4 4 5 5 6 6 8 9 9 9 9 10 10 10 9 9 11 13
10 7 4 3 4 5 8 10 9 9 10 9 8 7 7 6 4 3 6 7 7 8 9 11 12 11 9 8 7 7 6 5 4 5 5 6 7 9 9 8 8 8 7 7 6 6 5 5 5 4 4 4 3 3 3 3 3 3 2 2 2 2 2 3 2 3 3 3 4 5 5 5 6 7 8 8 8 8 9 10 10 9 8 9 11
9 8 7 7 6 6 9 13 12 10 10 11 11 10 9 9 7 6 6 8 8 6 6 7 8 8 9 10 10 8 7 7 6 5 5 6 7 8 8 8 7 7 6 6 5 5 6 6 5 5 4 4 4 4 4 5 5 5 4 3 2 2 2 3 2 2 2 3 4 5 5 5 5 7 8 7 7 6 7 8 10 10 8 7 7
10 9 9 7 7 9 12 13 11 10 9 11 13 13 12 11 10 9 8 8 8 8 7 7 5 4 5 9 11 11 9 8 7 6 6 7 7 8 8 8 7 7 6 5 5 5 5 5 4 4 4 4 4 4 4 5 5 6 5 3 2 1 2 2 1 1 2 4 5 5 5 5 5 6 6 7 6 6 6 8 9 10 9 6 5
10 10 9 8 10 12 13 12 9 8 8 9 12 15 16 14 12 11 11 10 9 9 9 8 6 3 2 5 9 12 11 10 8 7 7 7 7 7 7 8 7 7 6 5 4 3 3 3 3 3 3 3 3 3 3 3 4 4 4 4 2 1 1 2 2 2 2 4 5 5 4 4 5 5 6 6 6 6 6 7 8 8 9 6 4
Wind_Direction
340 313 282 265 259 254 245 243 245 239 231 232 240 244 242 239 237 233 227 227 227 223 222 224 217 210 205 194 195 212 214 202 200 202 200 201 203 204 206 206 208 212 213 213 214 215 216 215 214 215 217 220 222 223 223 223 222 219 215 208 204 206 207 204 201 188 197 211 219 221 223 223 219 219 219 217 215 213 215 219 219 216 212 210 212
346 328 291 263 258 259 253 249 247 239 233 237 241 238 235 233 229 220 217 222 224 221 215 213 211 207 201 194 196 205 205 198 198 199 198 199 199 201 203 203 205 208 210 212 211 212 216 215 215 217 218 222 225 225 224 223 222 219 214 210 207 207 210 211 208 194 195 208 216 220 223 223 221 219 220 219 216 214 214 216 219 218 215 216 218
337 326 304 269 255 254 258 258 254 248 245 245 240 232 226 222 216 211 213 216 219 218 211 207 208 206 201 197 196 200 201 198 198 197 198 198 196 198 202 202 204 206 209 211 209 212 217 217 220 221 220 222 222 222 223 221 221 221 216 213 209 208 212 213 213 215 211 211 216 221 222 222 221 220 221 221 219 219 218 218 221 222 220 221 222
338 326 312 287 260 248 250 256 254 248 246 245 240 231 220 213 209 207 206 206 213 213 206 207 208 203 202 201 198 198 199 196 196 197 199 199 196 197 201 201 202 205 207 208 208 211 215 218 222 222 222 224 221 221 222 220 224 223 215 211 208 211 216 215 220 232 228 219 220 224 225 224 222 220 221 221 220 222 224 224 225 227 228 228 228
338 329 313 297 281 258 248 246 243 238 237 239 238 231 218 212 208 204 199 200 205 202 199 206 208 202 204 205 198 194 193 192 195 197 199 200 198 199 202 201 202 205 208 208 209 213 217 220 221 220 222 225 226 227 225 225 229 221 210 211 209 211 220 220 223 230 231 228 225 222 223 223 220 219 220 220 220 222 225 227 228 231 233 234 235
338 327 310 293 282 272 260 252 246 241 237 235 236 230 216 209 206 199 198 197 194 193 197 201 198 200 204 201 193 191 191 191 194 195 195 197 197 199 202 205 206 208 212 214 215 217 221 224 223 220 221 222 225 228 228 229 227 214 209 216 213 210 216 222 224 227 230 234 229 220 220 220 216 217 219 221 223 223 224 227 230 233 235 237 239
342 328 312 294 275 268 267 262 256 252 247 242 239 229 210 201 199 194 195 194 186 188 194 191 190 199 201 194 190 191 191 191 192 192 192 192 193 197 201 204 207 209 213 216 216 218 221 226 230 228 224 225 224 224 228 228 224 219 221 224 218 213 213 217 224 229 232 232 226 219 220 218 214 216 218 221 226 229 229 229 231 233 235 238 242
347 337 322 307 285 269 262 256 252 250 247 239 231 218 199 193 196 193 191 190 186 187 188 184 188 197 194 189 189 189 187 189 189 188 190 190 193 199 201 202 205 205 208 213 215 218 223 230 239 239 234 233 228 225 227 224 221 223 224 226 223 216 212 215 223 235 236 228 222 219 217 215 211 211 216 218 221 229 231 232 234 237 236 238 243
348 343 334 321 301 280 259 253 255 250 239 223 209 199 189 189 193 191 188 186 185 186 185 184 188 189 185 184 185 183 184 184 181 182 186 188 193 196 195 196 199 201 206 213 217 219 224 230 240 242 237 235 233 234 235 230 229 227 216 217 224 213 207 211 219 234 232 220 217 215 211 210 207 203 208 215 219 227 230 230 235 240 242 243 248
353 349 346 337 317 294 268 258 260 248 229 210 193 182 180 183 185 184 183 183 184 184 183 185 186 183 179 178 177 177 178 175 171 174 177 181 188 189 185 185 190 196 200 201 202 208 217 226 236 237 231 229 229 235 238 233 237 234 218 219 228 213 205 208 217 234 230 216 214 211 205 209 212 210 215 221 225 229 229 229 234 241 245 250 255
2 358 354 347 332 306 276 260 252 238 224 206 184 173 171 172 173 173 177 180 182 184 181 179 178 177 175 172 170 169 169 167 166 166 164 167 176 183 184 184 188 190 186 181 184 194 206 216 227 227 223 223 224 228 229 219 222 226 219 222 226 213 209 213 224 238 235 219 215 212 208 214 218 217 221 225 227 229 230 232 237 242 246 253 263
8 6 3 356 348 321 278 256 239 223 218 204 179 169 166 165 165 168 171 172 174 177 176 170 167 169 168 165 163 162 161 162 164 165 164 163 166 172 176 176 178 179 178 181 187 191 196 197 197 198 202 209 210 209 207 198 195 206 211 209 205 206 212 220 231 243 238 222 215 213 216 223 226 225 226 229 235 239 241 243 244 246 249 249 256
12 11 9 5 0 346 291 245 219 204 204 195 171 160 159 160 160 160 162 164 163 164 166 164 161 161 161 158 157 155 154 155 158 162 165 165 166 168 167 169 175 179 182 188 188 186 186 183 174 164 156 153 157 163 167 167 166 169 171 164 160 168 182 192 208 229 231 225 219 213 217 227 230 231 232 233 240 248 250 253 255 254 254 253 259
16 14 14 13 9 2 350 244 188 166 161 164 155 149 149 151 151 153 156 158 155 152 155 158 156 155 156 155 152 150 149 150 154 160 164 165 169 170 167 171 179 183 185 187 183 179 177 177 173 161 145 136 134 138 144 147 146 141 137 132 129 125 123 122 123 128 147 181 191 177 166 172 178 173 184 205 227 241 242 249 254 254 256 260 267
18 17 18 19 17 15 17 42 119 128 132 142 144 141 140 140 142 147 151 152 147 144 146 150 150 149 151 153 152 149 148 149 153 160 165 168 172 171 168 171 175 178 177 174 169 163 159 164 170 167 157 148 143 141 144 147 147 142 133 124 119 117 114 108 105 106 109 111 119 121 115 114 127 133 138 150 163 188 205 226 246 253 263 271 279
20 19 20 21 24 26 31 53 91 111 115 118 125 130 129 128 132 139 142 140 136 135 136 139 140 141 145 151 152 149 147 149 154 159 165 170 173 170 167 166 165 163 158 153 148 142 140 143 145 145 148 150 149 148 149 152 152 146 134 124 120 118 110 99 95 95 97 101 105 105 105 103 101 105 116 157 253 269 276 288 297 296 297 299 295
21 21 20 22 28 33 37 51 77 103 112 105 103 117 122 122 126 131 133 131 129 127 126 127 128 131 136 143 147 146 144 147 154 159 164 171 173 168 162 158 152 147 141 138 138 134 130 130 130 129 128 129 133 139 148 154 150 140 130 125 122 116 106 96 94 94 93 95 99 99 99 98 92 92 84 21 319 305 301 297 297 298 305 312 303
21 23 23 24 32 40 45 51 61 82 101 102 98 109 119 123 124 128 131 131 129 125 123 122 122 122 124 129 136 140 140 143 152 158 162 169 171 165 159 151 143 137 134 131 131 130 126 125 125 125 121 119 122 130 141 151 146 136 131 126 119 111 104 99 99 101 99 96 97 99 101 98 94 90 79 65 49 24 11 8 346 320 325 338 313
20 27 30 32 37 45 52 56 57 65 82 93 93 100 114 125 129 129 129 128 125 123 122 121 119 116 115 118 125 132 137 143 152 157 158 162 163 159 155 148 138 133 131 129 126 125 124 121 119 117 115 116 122 126 132 143 140 132 131 130 119 106 101 104 109 115 118 115 112 109 105 96 89 84 76 67 56 45 41 40 30 19 19 20 357
22 32 39 42 45 49 57 63 62 61 72 86 91 94 106 120 127 127 124 122 121 120 119 117 114 112 112 114 117 123 131 139 146 152 154 157 157 155 154 148 139 133 130 129 125 122 119 116 112 110 111 115 119 121 123 128 128 124 125 125 112 103 102 105 108 114 118 116 113 107 100 92 82 73 65 56 49 43 37 31 22 16 14 11 7
27 35 43 49 50 50 57 68 74 70 72 81 88 91 98 109 117 119 117 114 112 112 113 112 110 108 109 111 112 115 122 131 139 145 149 152 153 154 152 147 143 139 132 128 125 119 115 113 110 109 111 111 110 109 106 102 103 106 105 101 101 106 110 108 107 110 112 111 107 99 88 79 67 56 46 39 36 32 26 21 15 7 358 351 350
34 37 42 47 52 53 54 65 78 83 82 82 82 82 88 98 107 110 110 107 103 101 103 106 105 103 103 105 107 108 111 120 129 136 141 144 147 152 149 143 143 143 136 129 124 120 117 116 113 111 111 108 103 99 96 93 91 89 89 94 101 108 110 107 106 107 104 99 93 80 67 55 46 40 33 29 25 20 14 9 3 356 347 338 335
40 43 44 45 49 53 55 59 70 80 86 90 87 81 79 86 96 104 104 101 96 92 94 98 100 98 98 99 101 103 105 109 115 122 129 134 138 142 142 138 140 144 138 129 125 123 122 119 115 114 113 110 106 103 98 95 94 93 94 99 103 104 106 105 103 100 93 82 70 58 48 37 29 24 19 15 10 5 1 354 347 342 333 321 317
43 45 47 48 48 51 55 60 66 71 79 88 91 88 86 82 86 96 101 98 93 88 87 90 92 92 92 94 96 99 101 102 105 109 116 125 129 131 134 135 139 140 132 125 125 125 123 119 117 116 114 110 107 103 98 94 94 95 98 101 102 103 105 103 100 93 82 69 57 49 40 30 22 16 11 7 358 350 345 339 334 332 322 306 293
44 44 47 51 53 54 53 56 63 67 72 80 84 88 94 95 89 92 98 98 95 91 88 89 89 88 89 93 96 97 97 97 99 101 106 115 122 127 130 132 134 131 124 121 121 121 119 117 116 113 110 107 105 101 96 93 94 96 98 99 100 98 96 94 88 79 68 56 46 39 31 24 17 10 3 357 349 343 341 340 340 340 328 311 298
43 43 44 48 54 58 56 54 58 62 67 73 78 82 92 100 99 96 97 98 97 94 92 92 92 91 90 90 92 95 98 99 99 99 105 115 121 124 125 124 123 121 118 118 119 118 117 116 113 109 106 103 101 98 96 95 95 95 93 93 91 87 82 77 69 62 57 48 37 30 22 15 10 2 356 355 355 356 358 356 357 359 356 347 340
40 40 41 44 49 56 59 57 56 59 62 67 74 81 90 102 108 105 100 96 91 87 84 85 88 91 90 89 90 94 98 101 102 103 110 119 122 123 122 121 119 118 117 118 118 117 115 111 107 105 103 100 97 96 95 94 91 87 82 79 76 71 67 63 58 55 51 43 35 30 24 17 12 8 7 10 12 11 9 6 5 8 9 7 7
38 37 40 42 44 52 61 64 61 60 61 63 68 73 81 94 105 107 102 98 98 98 96 94 96 98 100 101 101 99 97 98 101 107 113 119 124 126 125 122 122 121 119 119 117 114 111 108 104 102 99 96 93 90 87 84 81 78 75 73 72 71 70 66 60 55 51 46 43 41 37 34 30 24 23 25 22 15 12 12 13 14 15 15 16
42 40 41 43 44 46 55 64 68 68 66 67 68 69 73 79 86 88 84 84 92 100 101 101 103 108 112 114 115 113 108 103 103 109 116 123 128 130 128 126 125 122 119 119 117 112 107 102 97 93 90 87 84 80 77 79 80 79 79 78 78 77 73 67 62 59 57 55 54 53 50 48 44 38 35 34 28 22 20 20 22 23 22 20 20
48 47 45 45 46 46 48 55 65 71 75 77 76 76 76 76 76 77 74 71 74 81 87 94 104 112 117 121 123 121 118 115 114 117 122 128 132 131 128 126 125 122 121 121 116 108 101 94 90 87 85 84 83 82 82 85 86 85 83 82 79 76 73 71 70 70 68 66 64 62 60 57 53 47 43 39 36 33 31 29 29 29 27 24 22
42 47 47 44 43 46 49 51 57 66 75 83 87 87 87 85 82 81 80 80 81 81 84 93 103 112 120 129 131 125 120 120 123 126 129 132 133 130 127 127 125 124 127 123 109 103 99 95 91 89 88 88 89 89 89 90 90 89 88 85 82 80 79 77 77 77 75 73 70 67 63 59 54 50 47 45 42 39 37 35 33 31 28 27 29
16 33 47 47 43 44 45 49 55 61 68 79 88 94 95 93 91 90 91 93 94 93 91 91 94 100 112 127 133 130 124 123 124 128 133 135 133 131 130 130 127 127 131 119 108 105 102 99 96 96 96 95 94 94 94 93 92 92 91 88 84 81 78 76 76 76 74 71 68 63 59 55 52 49 47 45 42 40 39 37 34 32 30 31 37
6 14 31 41 46 48 46 46 55 62 66 74 82 92 99 101 101 100 99 99 99 100 100 99 97 98 102 112 125 128 124 120 119 124 131 136 136 136 134 131 129 129 125 115 110 107 103 102 104 106 105 103 102 100 96 93 92 92 90 87 83 80 77 75 75 73 69 65 63 60 57 53 51 49 47 44 40 38 37 35 33 34 34 36 39
11 18 29 32 37 46 51 57 63 64 70 90 103 106 109 112 114 112 107 102 99 98 99 98 96 94 92 93 107 123 127 124 120 123 130 135 137 138 135 129 125 121 114 111 111 108 106 107 109 111 110 108 107 103 98 93 91 89 87 86 85 83 80 78 75 72 68 66 65 62 59 56 52 49 47 45 43 40 37 35 32 31 33 34 34
22 34 42 36 28 28 48 80 89 82 88 121 144 144 138 134 131 126 121 114 107 103 102 99 93 88 83 80 89 109 125 130 128 129 134 137 139 141 137 128 122 116 112 111 111 110 109 110 111 112 112 110 107 103 99 95 92 89 87 86 86 84 80 76 73 72 70 69 67 64 60 56 53 49 47 46 44 41 39 37 35 33 33 31 28
32 42 44 37 36 46 69 93 113 124 126 139 156 160 157 149 140 132 128 124 120 115 112 109 102 96 90 85 87 98 113 125 132 136 140 143 147 152 143 131 125 121 118 116 115 113 112 112 112 112 111 109 106 102 99 97 95 92 88 88 89 86 81 76 74 72 71 69 65 60 56 54 52 50 48 47 45 42 39 37 35 34 31 27 25
35 39 39 42 53 65 73 81 93 111 126 141 156 162 162 157 147 137 131 131 130 127 125 125 121 113 106 99 96 101 111 124 138 147 149 154 165 171 152 137 133 129 125 123 121 118 116 115 113 112 110 108 105 101 98 97 97 95 94 95 94 89 82 77 75 74 71 67 61 55 52 49 47 45 44 42 39 37 34 32 30 29 27 26 24
39 38 38 44 53 57 63 71 75 75 78 100 147 163 165 161 155 147 141 141 143 142 141 141 136 126 118 112 107 105 112 130 148 153 152 156 162 157 146 139 136 132 130 129 126 123 121 120 118 115 111 108 105 100 99 100 101 101 100 99 98 92 84 79 76 72 66 61 55 51 49 47 44 41 39 37 34 31 29 26 24 23 23 22 20
39 36 32 31 27 31 55 72 71 70 71 75 110 159 169 167 162 160 158 159 161 163 166 166 155 135 123 120 119 113 108 121 136 140 139 139 142 143 141 139 137 135 134 132 129 125 124 124 124 122 119 116 111 105 100 100 102 100 96 96 99 96 86 79 72 63 57 51 47 46 48 47 44 41 38 36 33 29 26 25 22 20 19 15 12
27 22 18 16 13 19 50 65 69 77 81 76 84 145 174 177 174 171 172 174 176 177 183 182 172 151 132 127 137 137 111 113 124 133 136 133 133 135 137 138 138 138 139 138 136 133 131 130 129 129 127 124 119 110 101 98 98 96 92 94 98 94 85 75 65 55 50 46 45 48 49 46 43 42 40 37 33 28 23 20 17 16 15 12 11
8 6 6 5 6 21 45 42 55 74 77 71 69 123 181 189 188 183 179 181 184 186 182 175 165 153 141 134 132 119 115 121 127 132 133 132 134 135 135 136 138 140 143 145 144 142 139 136 131 127 122 119 117 112 104 97 93 91 91 95 98 94 83 71 60 53 48 45 46 49 46 41 40 37 34 33 32 27 20 13 8 8 11 13 15
1 1 1 359 358 2 358 352 10 44 51 52 57 68 198 206 205 197 187 185 188 181 168 160 155 150 146 140 127 111 116 123 128 129 126 126 131 132 130 131 134 135 136 140 143 144 144 140 133 125 117 112 110 106 101 93 86 83 89 102 109 101 80 61 54 51 46 43 45 45 40 36 35 30 30 33 32 24 17 14 14 16 19 20 19
1 3 5 2 360 356 341 327 327 2 21 30 42 49 33 240 226 210 192 185 184 176 166 159 157 154 150 144 136 123 116 118 122 124 121 118 121 125 125 125 127 127 127 128 132 138 142 140 136 131 120 112 105 99 94 92 89 86 92 109 126 126 82 51 49 52 48 45 45 42 36 32 26 23 28 35 32 23 21 23 26 29 30 26 19
355 359 7 11 11 5 344 324 316 334 353 4 18 32 32 340 250 215 193 182 180 177 172 167 163 159 154 151 148 138 126 120 119 120 121 121 123 125 125 124 124 125 125 123 121 123 127 128 127 126 122 114 107 98 90 89 90 88 92 112 140 178 211 19 34 46 49 41 34 34 36 32 24 22 26 30 26 21 22 24 25 25 26 26 24
340 346 357 11 20 12 345 315 302 309 317 326 339 360 25 6 276 223 198 186 182 181 177 174 171 166 160 155 154 151 143 134 127 123 124 126 126 125 126 126 126 125 124 123 121 120 120 118 115 115 116 111 107 104 100 101 110 115 134 162 176 209 244 339 12 36 40 28 21 33 43 37 30 27 28 28 22 18 21 24 21 18 20 26 28
324 325 333 1 21 14 345 303 282 284 289 292 299 304 326 23 292 230 200 186 184 186 186 183 180 178 171 162 159 158 154 147 140 132 126 125 125 125 125 126 125 123 122 121 120 120 118 114 109 110 115 116 120 134 177 205 209 229 237 219 199 145 49 31 28 38 35 20 17 34 42 33 26 22 19 20 18 15 19 25 22 19 26 28 21
312 307 304 334 6 8 356 328 290 273 268 264 265 270 266 251 225 220 210 197 190 194 200 200 195 191 185 177 168 162 156 153 152 144 133 128 129 130 128 127 127 126 124 122 121 119 114 109 107 108 110 107 97 94 92 98 93 56 82 107 102 72 68 67 63 61 48 24 18 22 19 15 15 9 5 7 9 8 15 21 17 18 30 26 10
313 301 291 311 329 340 349 346 325 287 264 252 249 257 259 248 228 221 228 222 208 202 206 208 206 206 203 195 181 168 160 159 161 157 151 146 141 139 138 136 135 134 132 131 130 125 118 113 109 104 97 90 83 76 72 70 65 60 68 79 73 75 99 110 94 75 54 24 13 10 2 357 356 352 352 357 1 1 9 15 9 11 28 27 7
320 313 311 316 314 314 328 336 333 311 278 255 246 249 255 250 241 238 237 229 219 213 209 204 205 213 218 209 197 183 172 169 170 168 170 167 158 150 147 145 145 144 142 138 135 130 121 114 105 95 89 87 81 71 63 61 59 56 56 63 69 93 134 145 124 61 29 6 359 355 347 344 344 343 346 355 1 358 2 8 6 5 18 28 15
325 326 326 324 319 321 327 330 325 313 291 264 248 246 249 248 246 248 247 234 223 225 231 226 216 219 224 217 209 202 195 186 177 171 172 175 172 166 160 155 150 148 146 143 137 129 121 112 100 89 80 78 77 72 64 62 62 57 52 52 59 97 153 167 175 349 351 347 345 342 335 333 338 342 347 355 0 356 357 3 2 359 2 13 16
324 328 330 326 323 329 335 336 326 309 294 274 257 250 246 243 242 245 246 239 230 232 241 243 236 225 233 234 226 219 213 204 189 178 175 177 178 180 178 171 164 160 160 159 149 131 118 112 99 83 69 59 66 72 67 63 62 55 49 49 54 74 178 201 227 277 317 332 339 340 338 338 342 345 347 347 344 341 346 354 356 354 354 356 1
Height
776 774 772 771 771 771 772 774 773 772 772 775 778 780 781 782 783 785 787 788 789 789 791 792 793 795 797 797 799 804 805 804 805 807 808 810 811 813 815 817 819 820 821 822 823 824 825 826 828 829 830 831 832 833 834 835 836 838 839 841 842 843 845 846 847 848 849 851 852 853 853 855 856 857 859 860 861 862 863 864 865 865 865 866 867
777 775 773 771 770 769 770 771 770 770 771 773 775 777 779 781 783 784 785 786 787 787 788 791 793 795 796 797 799 802 804 804 805 806 807 809 810 812 814 816 818 819 820 821 822 823 824 826 827 828 829 830 831 832 833 834 835 836 838 840 841 842 844 845 847 848 849 850 851 852 853 854 855 856 858 859 859 861 861 862 863 864 865 865 866
777 775 774 772 770 769 768 769 770 771 771 771 773 775 777 779 781 783 783 783 784 785 786 790 793 795 796 797 799 801 802 803 804 805 806 808 809 811 813 815 816 818 819 820 821 822 824 825 826 827 828 829 830 831 832 833 834 835 837 838 840 842 843 845 846 848 849 849 850 850 851 852 854 855 857 858 859 860 861 861 862 863 863 864 864
777 774 773 772 771 770 769 769 770 769 768 769 772 774 775 776 778 780 781 781 783 783 785 790 794 794 797 799 799 799 801 802 804 805 806 807 809 810 812 814 815 817 818 819 820 822 823 824 825 826 827 828 829 830 831 832 833 834 836 838 840 842 844 845 846 847 847 848 848 849 850 851 853 854 856 857 858 859 860 861 861 862 862 862 863
777 775 773 772 772 771 770 770 769 768 768 769 771 772 773 774 775 777 778 779 781 782 784 790 792 793 797 799 798 799 800 801 803 804 806 807 808 809 811 813 814 815 817 818 819 821 822 823 823 825 826 826 827 828 829 831 832 833 836 838 839 841 843 844 845 846 846 846 847 848 849 850 852 853 854 856 857 858 859 860 860 860 861 861 861
776 774 773 772 772 771 770 770 769 768 768 769 769 769 770 771 772 774 776 777 779 782 785 789 791 794 798 798 798 799 800 801 802 804 805 806 807 809 810 812 813 814 815 817 818 819 820 821 822 824 824 825 826 827 828 829 830 832 834 836 837 839 840 842 844 844 845 845 845 846 847 848 850 851 853 855 856 856 857 858 859 859 859 859 859
774 773 772 772 772 771 770 769 767 765 766 766 766 767 767 769 771 772 774 776 779 783 787 789 791 795 797 796 797 798 799 800 802 803 804 805 806 808 809 811 812 813 814 816 817 818 819 821 822 822 823 824 825 826 827 828 829 830 832 834 836 837 839 841 842 842 843 844 845 845 846 847 848 850 852 854 855 856 856 857 857 856 857 857 857
773 772 771 770 771 770 768 766 763 761 761 762 763 764 765 768 770 770 771 774 778 783 786 787 790 794 795 795 796 797 798 800 800 802 803 804 806 807 808 810 811 812 814 815 816 818 819 820 821 822 822 823 824 825 826 827 828 829 831 833 834 835 837 839 839 840 841 842 843 844 845 846 847 849 851 853 854 854 854 855 854 854 854 854 854
771 770 770 769 769 767 765 763 760 759 759 760 760 761 763 766 768 769 770 773 777 781 783 785 788 791 793 794 795 796 797 799 799 801 802 803 804 806 807 809 810 811 813 814 816 817 818 819 820 821 822 823 824 825 825 827 828 828 830 832 832 833 835 837 838 839 840 841 842 843 844 845 846 848 849 850 850 850 851 852 852 851 852 853 853
772 770 768 768 767 766 763 761 758 758 758 758 759 759 760 762 764 766 769 772 775 779 781 784 787 789 791 793 793 794 796 797 799 800 801 802 803 805 806 808 809 811 812 814 815 817 818 819 820 820 822 822 823 824 825 827 828 828 830 831 831 832 834 835 837 838 839 840 840 841 842 843 844 845 845 846 847 848 849 850 849 850 851 851 850
775 772 769 766 765 763 761 759 757 756 757 758 759 758 760 761 763 765 768 771 775 778 781 784 786 788 790 791 792 793 794 796 798 799 800 801 802 804 805 807 808 810 812 813 815 816 817 819 819 820 821 822 823 824 825 827 828 828 829 830 831 832 833 835 836 837 838 838 838 839 840 840 841 843 844 845 846 847 847 848 848 849 850 851 849
776 773 770 767 764 762 760 758 757 757 757 758 758 758 760 762 763 765 769 772 775 778 781 783 785 787 789 790 791 792 793 795 797 799 800 801 802 803 805 806 808 810 811 813 814 816 817 818 819 820 821 822 823 824 825 826 827 828 828 829 830 832 833 834 835 835 835 836 837 838 839 840 841 842 843 844 845 846 846 847 847 848 849 849 848
778 775 772 768 764 762 760 759 758 757 757 758 759 758 759 762 763 765 769 773 775 778 780 783 785 786 787 788 790 792 793 795 797 798 800 801 802 803 804 806 808 809 811 812 814 815 817 818 819 820 821 822 822 823 824 825 826 827 828 829 830 831 832 833 833 834 834 835 836 837 839 840 841 842 843 844 844 845 845 845 846 846 847 847 846
781 778 774 770 767 763 761 760 760 759 758 759 760 759 760 762 764 766 770 774 776 777 779 782 784 785 787 788 790 792 794 796 797 798 800 801 802 803 804 806 808 809 811 812 814 815 817 818 820 821 822 823 823 823 824 825 826 827 828 829 830 831 832 832 833 833 834 835 836 838 839 840 841 841 842 843 843 844 844 844 845 845 845 845 845
784 781 777 773 770 766 764 763 762 761 761 761 761 760 762 764 765 768 772 776 777 777 779 782 783 785 787 788 790 792 794 796 798 799 800 801 802 803 804 806 808 809 811 813 814 816 817 819 820 821 822 823 824 825 825 826 827 828 829 829 830 832 832 833 834 834 835 836 837 838 839 840 840 841 841 842 842 843 843 844 844 844 844 844 844
787 784 780 777 774 770 768 766 765 764 764 765 764 763 765 768 770 772 774 777 778 779 780 783 784 786 788 789 791 793 795 797 798 799 800 801 802 803 805 806 808 809 811 813 815 816 818 819 820 821 822 823 824 825 826 827 828 828 829 830 831 833 834 834 835 836 836 837 838 839 840 840 841 841 841 842 842 842 842 843 843 843 842 842 842
790 788 784 781 778 776 773 770 769 767 766 769 770 768 768 771 775 776 777 778 781 783 783 784 786 788 790 791 792 794 796 798 799 800 801 801 802 803 805 806 808 810 812 814 815 817 819 820 821 822 822 823 824 826 827 827 828 829 829 830 832 833 834 835 836 836 837 838 838 839 840 840 841 841 841 841 841 841 842 842 842 842 841 841 841
795 792 789 786 783 781 778 776 774 771 770 772 775 774 772 774 778 779 780 782 785 786 785 786 788 791 793 793 794 795 796 799 800 801 802 803 803 804 805 807 809 811 813 815 816 818 819 821 822 823 823 824 825 826 827 828 829 830 830 831 832 833 834 835 836 836 837 838 838 839 840 840 841 841 841 841 841 840 841 841 841 841 841 841 841
799 796 793 791 787 785 783 780 779 777 775 776 779 779 777 779 781 783 785 786 787 788 788 788 789 792 794 795 796 797 798 800 801 802 803 804 804 805 806 807 810 812 814 815 817 818 820 821 822 823 824 825 826 827 828 829 829 830 831 831 832 833 834 835 836 837 837 838 839 839 840 840 841 841 840 840 840 840 840 840 840 840 840 840 840
804 801 798 795 792 789 787 784 783 783 782 782 783 783 783 784 785 787 789 790 790 791 791 790 791 794 796 797 798 799 800 802 803 804 805 805 806 807 807 808 810 813 815 816 817 819 820 822 823 824 824 825 826 827 828 829 829 830 830 831 831 833 834 835 836 837 838 838 839 839 840 840 840 840 840 840 840 840 840 840 840 840 839 839 839
808 805 801 798 796 794 791 788 788 789 790 788 787 789 790 790 790 791 793 794 795 794 793 793 794 796 798 799 800 801 803 803 805 806 807 807 808 808 809 810 811 813 815 817 819 820 821 822 823 824 825 825 826 827 827 828 829 829 830 830 831 833 834 835 836 837 837 838 838 839 840 840 840 840 840 840 840 840 840 840 840 839 839 839 838
811 808 805 802 800 798 796 794 792 793 794 793 793 794 796 796 796 795 795 798 799 798 796 795 796 798 800 801 802 804 805 806 807 808 808 809 810 810 811 811 813 814 815 818 820 821 822 823 824 825 825 825 826 827 827 828 829 829 830 831 832 833 834 835 835 836 836 837 838 838 839 839 839 839 839 839 839 839 839 839 839 839 838 838 837
814 811 809 807 805 803 801 799 797 797 797 796 797 799 800 801 801 799 799 801 804 803 801 800 800 801 803 804 805 806 807 808 809 809 810 812 813 813 813 813 815 816 816 818 820 822 823 824 825 826 826 827 827 828 828 829 830 830 831 832 833 834 834 835 835 836 836 837 837 838 838 838 838 838 838 838 838 838 838 838 838 837 837 836 836
817 815 813 811 810 808 806 804 802 801 800 799 800 802 804 806 805 803 803 805 807 807 806 805 805 805 806 807 808 809 810 810 811 812 813 814 816 816 816 816 817 817 818 819 821 822 824 826 827 828 828 828 829 829 829 830 831 831 832 833 834 834 835 835 836 836 837 838 838 838 839 839 838 838 838 838 838 837 837 837 836 836 835 834 834
821 819 817 816 814 812 811 809 807 805 804 803 803 805 806 808 809 808 807 808 809 810 810 810 809 810 811 812 812 813 813 814 814 815 816 818 818 819 818 818 818 818 819 821 823 825 826 827 828 829 830 830 830 830 831 832 833 833 834 834 835 835 836 836 837 837 837 838 839 839 839 839 839 839 838 838 837 836 835 835 834 834 833 832 833
824 823 822 820 818 816 815 814 812 810 808 807 807 808 809 811 811 811 812 812 813 813 813 813 813 814 815 816 815 815 817 818 818 818 820 821 822 821 821 820 820 819 820 823 825 827 828 829 830 830 831 832 832 832 833 834 834 835 835 835 836 837 837 838 838 838 838 839 839 839 839 839 839 839 838 837 836 835 834 833 833 833 832 831 831
828 827 825 824 822 820 819 818 816 815 813 812 811 812 813 813 814 815 815 816 816 816 816 816 817 818 818 818 819 820 821 821 821 821 823 824 824 824 824 823 822 822 823 825 827 829 830 831 831 832 833 833 834 834 835 835 835 836 836 837 837 838 838 839 839 839 840 840 840 840 840 839 839 838 837 837 835 835 835 834 833 832 832 831 831
831 830 828 827 825 824 823 822 821 819 819 818 817 816 817 817 817 818 819 819 819 819 819 820 821 821 821 821 823 824 824 824 823 824 825 826 826 826 826 826 826 826 826 828 829 830 831 832 833 834 834 835 835 836 836 837 837 837 838 838 839 839 840 840 840 840 840 841 841 840 840 839 839 838 838 837 836 836 836 835 834 833 833 832 831
833 832 831 830 828 827 826 825 824 823 823 823 822 822 821 821 821 821 822 822 822 821 822 823 824 825 825 825 826 826 826 826 826 826 827 828 828 828 828 828 828 828 829 830 830 831 832 833 834 835 836 836 837 838 838 839 839 839 840 840 841 841 841 841 841 841 841 841 841 840 840 840 840 839 839 839 838 838 837 836 835 834 833 832 832
835 834 833 832 831 831 830 829 828 827 827 827 827 827 826 826 825 825 825 826 825 825 825 826 827 828 828 828 829 829 829 829 828 829 830 831 831 830 830 831 831 831 831 832 832 833 834 834 836 837 838 838 839 840 841 841 841 841 842 842 842 842 842 842 842 843 843 842 842 841 841 841 841 841 840 840 840 839 838 837 836 835 834 833 833
837 836 835 835 834 833 833 833 832 831 831 830 830 830 830 829 829 829 829 829 829 829 829 830 830 830 830 831 832 832 831 831 831 831 832 833 833 833 833 833 833 833 834 834 834 835 836 836 838 839 840 840 842 842 843 843 843 844 844 844 844 844 844 844 844 844 844 843 843 843 843 843 843 843 842 842 841 840 839 838 837 837 836 835 834
839 838 837 836 836 835 835 835 834 834 834 834 833 833 832 831 831 832 832 832 831 831 832 833 833 832 832 833 834 833 833 833 833 833 834 834 834 835 835 835 836 836 836 835 836 837 838 838 840 841 841 842 843 844 845 845 845 845 845 845 845 846 845 845 846 845 845 845 845 845 845 845 845 844 844 843 842 841 840 839 838 838 837 837 836
840 840 839 838 837 837 836 836 836 836 836 836 836 836 835 834 834 834 835 835 834 834 834 835 835 835 835 835 835 835 835 835 835 835 835 835 836 836 837 837 838 838 838 837 838 839 840 840 841 842 843 844 845 846 846 847 847 847 847 847 847 847 847 847 847 847 847 847 847 847 847 846 846 845 845 844 843 842 841 840 840 839 839 838 837
841 841 840 839 839 838 837 837 837 837 837 837 838 838 838 837 837 837 837 837 837 836 837 837 837 837 837 836 836 836 836 836 836 836 837 837 838 838 838 839 839 840 839 839 840 841 842 842 843 844 845 846 846 847 847 848 848 848 848 848 848 849 849 849 849 849 849 849 849 848 848 848 847 846 846 845 844 843 843 842 841 841 840 840 840
843 842 841 840 839 838 838 837 837 837 837 837 838 839 839 839 839 839 839 838 838 839 839 839 839 839 838 838 837 838 838 838 838 838 838 839 839 840 840 840 841 841 841 842 842 843 843 844 845 845 846 847 848 848 848 849 849 849 849 849 850 850 850 850 850 851 851 850 850 850 849 849 848 847 847 846 845 845 844 844 843 843 842 842 842
844 843 843 842 840 839 839 838 837 837 837 837 838 839 839 840 840 840 840 840 840 840 841 841 841 840 840 839 839 839 839 839 839 839 840 840 841 841 841 841 842 842 843 844 844 844 845 845 846 847 848 848 849 849 849 850 850 850 850 851 851 851 852 852 852 852 852 852 851 851 850 850 849 849 848 848 847 846 846 846 845 845 845 844 843
845 845 844 843 842 841 841 840 839 838 838 837 837 838 840 841 841 842 842 842 842 842 842 842 842 842 841 841 841 841 841 841 841 841 842 842 842 842 842 842 842 843 844 845 846 846 846 847 848 848 849 849 850 850 850 850 851 851 852 852 853 853 853 853 853 853 853 853 852 852 852 851 851 850 850 849 849 848 848 848 847 847 846 845 844
846 846 846 845 844 844 843 842 841 840 839 839 838 839 840 841 842 842 843 843 843 843 843 843 843 843 842 843 843 843 842 842 842 842 842 843 843 843 843 843 843 844 845 846 847 847 848 848 849 850 850 850 851 851 851 852 852 852 853 853 854 854 854 854 854 854 854 854 853 853 853 852 852 851 851 851 850 850 850 849 848 847 846 845 844
847 847 847 846 845 845 844 844 843 842 841 841 840 841 841 842 843 843 843 844 844 844 844 844 844 844 844 844 844 843 843 843 843 843 843 843 844 844 844 844 845 845 846 847 848 848 849 849 850 851 851 852 852 852 853 853 853 853 854 854 854 854 854 855 855 855 855 855 854 854 854 853 853 853 852 852 852 851 850 850 849 848 847 846 844
848 848 847 846 846 846 845 845 844 844 843 843 842 842 842 842 843 843 843 844 844 844 844 844 844 845 845 845 845 845 844 843 843 844 844 844 845 845 845 846 846 847 847 848 849 849 850 850 851 852 852 852 853 853 853 854 854 854 854 854 855 855 855 855 855 856 855 855 855 855 855 854 854 854 854 853 852 851 851 850 850 849 847 846 844
849 848 848 847 846 846 846 846 846 845 845 844 844 844 843 843 843 843 843 844 844 844 844 844 845 846 846 846 846 846 845 845 845 845 845 845 846 846 847 847 847 848 848 849 850 850 851 851 852 852 852 853 853 854 854 854 854 854 855 855 855 855 856 856 856 856 856 856 856 856 856 856 855 854 854 853 852 852 851 851 850 848 847 846 844
849 849 848 847 847 847 847 847 846 846 846 846 845 845 845 844 844 844 844 844 844 844 844 845 846 847 847 847 847 847 846 846 846 846 846 846 847 847 848 848 849 849 850 850 851 851 852 852 852 853 853 853 854 854 854 855 855 855 855 856 856 856 857 857 857 857 858 858 857 857 857 856 855 854 854 853 853 852 851 850 849 848 847 846 845
850 850 849 848 847 847 847 847 847 847 847 847 846 846 846 845 845 845 845 845 845 845 845 846 846 847 848 848 848 848 847 847 847 847 847 847 848 848 849 849 850 850 850 851 851 852 852 852 853 853 854 854 854 854 855 855 855 856 856 856 857 857 857 858 858 859 859 858 858 857 857 856 855 855 854 854 853 852 851 850 849 848 847 846 845
850 850 849 849 848 848 848 848 848 848 848 848 847 847 847 846 845 845 845 846 846 846 847 847 847 848 848 848 848 848 848 848 848 848 849 849 849 850 850 850 851 851 851 851 852 852 853 853 853 854 854 855 855 855 855 856 856 856 856 857 857 858 858 858 859 859 859 858 858 857 857 856 856 855 855 854 853 852 851 850 849 848 847 847 846
851 850 850 849 849 848 848 848 848 848 849 848 848 848 847 847 846 846 846 847 847 847 848 848 848 848 848 848 849 849 849 849 849 850 850 850 850 851 851 851 851 852 852 852 852 853 853 854 854 854 855 855 856 856 856 856 856 857 857 857 858 858 858 858 858 858 858 858 858 857 857 857 856 856 855 854 854 853 852 851 850 849 848 847 847
851 850 850 849 849 849 848 848 848 848 848 849 849 848 848 848 847 847 847 847 848 848 848 849 849 849 849 849 849 850 850 850 850 851 851 851 851 851 851 852 852 852 853 853 853 854 854 855 855 855 855 856 856 856 856 857 857 857 857 857 857 857 858 858 858 858 858 858 858 858 857 857 857 856 855 855 854 853 853 852 851 850 849 848 847
850 850 850 849 849 849 849 848 848 848 848 848 849 848 848 848 848 848 848 848 849 849 849 849 849 849 850 850 850 850 850 851 851 851 851 851 851 852 852 852 852 853 853 854 854 855 855 855 855 856 856 856 856 856 856 856 856 856 856 857 857 857 857 857 857 858 858 858 858 858 857 857 857 856 856 855 854 854 853 852 852 851 850 849 848
850 850 849 849 849 849 849 848 848 847 847 847 848 848 848 848 848 848 848 848 848 849 849 849 849 849 850 850 850 851 851 851 852 852 852 852 852 852 852 853 853 854 854 854 855 855 855 856 856 856 856 856 856 856 856 856 856 856 856 856 856 857 857 857 857 858 858 858 858 857 857 857 857 856 856 855 855 854 853 853 852 851 850 850 849
850 850 849 849 849 849 848 848 847 847 846 847 847 847 847 847 848 848 847 848 848 848 849 849 849 849 849 850 850 851 851 851 852 852 852 852 852 853 853 853 854 854 854 855 855 855 856 856 856 856 857 857 857 857 856 856 856 856 856 856 856 857 857 857 857 857 857 857 857 857 857 857 856 856 856 855 855 854 854 853 852 851 850 850 850
850 850 849 849 849 849 848 848 847 846 846 846 846 846 846 847 847 847 847 848 848 848 848 849 849 849 849 849 850 850 851 851 852 852 852 852 853 853 853 854 854 854 855 855 855 856 856 856 857 857 857 857 857 857 857 856 856 856 856 856 857 857 857 857 857 857 857 857 857 857 857 856 856 856 855 855 854 854 853 853 852 851 850 850 850
850 850 849 849 848 848 847 846 846 845 845 845 845 845 845 845 846 847 847 847 848 848 848 848 849 848 848 848 849 849 850 851 851 852 852 852 853 853 853 854 854 854 855 855 855 856 856 856 857 857 857 857 857 857 857 856 856 856 856 857 857 857 857 857 857 857 857 857 857 857 856 856 856 855 855 855 854 854 853 853 852 851 850 850 850